NOZ65K ZSJN-ZYTL

Flight info

Callsign NOZ65K
Flight time N/A
Altitude 35100
Route BASOV7Y BASOV W4 HCH W173 NIXEP NIX08A
Aircraft B733/M-SDE2E3FHIRW/S

Departure

Time 2026-04-16 14:43
Airport Jinan Yaoqiang International Airport (ZSJN)

Arrival

Time N/A
Airport Dalian Zhoushuizi International Airport (ZYTL)
Time Latitude Longitude Altitude Speed Heading
2026-04-16 14:43 36.82029 117.33855 4196 ft 271 kts 88°
2026-04-16 14:43 36.82585 117.36114 4871 ft 283 kts 55°
2026-04-16 14:44 36.84098 117.37727 5606 ft 293 kts 23°
2026-04-16 14:44 36.86098 117.38128 6346 ft 301 kts 352°
2026-04-16 14:44 36.88199 117.37649 7144 ft 307 kts 351°
2026-04-16 14:44 36.90330 117.37319 7978 ft 311 kts 354°
2026-04-16 14:45 36.92513 117.37128 8831 ft 315 kts 356°
2026-04-16 14:45 36.94716 117.37020 9687 ft 317 kts 357°
2026-04-16 14:45 36.96936 117.36958 10541 ft 319 kts 357°
2026-04-16 14:45 36.99149 117.36928 11391 ft 319 kts 358°
2026-04-16 14:46 37.01340 117.36912 12229 ft 318 kts 357°
2026-04-16 14:46 37.03529 117.36903 13055 ft 316 kts 357°
2026-04-16 14:46 37.05523 117.36900 13826 ft 313 kts 356°
2026-04-16 14:46 37.07824 117.36897 14762 ft 312 kts 356°
2026-04-16 14:47 37.09980 117.36900 15694 ft 308 kts 356°
2026-04-16 14:47 37.12115 117.36935 16552 ft 310 kts
2026-04-16 14:47 37.14259 117.37322 17328 ft 312 kts
2026-04-16 14:47 37.16430 117.37781 18007 ft 312 kts
2026-04-16 14:48 37.18581 117.38228 18632 ft 313 kts
2026-04-16 14:48 37.20736 117.38666 19033 ft 321 kts
2026-04-16 14:48 37.22965 117.39120 19424 ft 327 kts
2026-04-16 14:48 37.25235 117.39579 19808 ft 332 kts
2026-04-16 14:49 37.27519 117.40040 20194 ft 337 kts
2026-04-16 14:49 37.29861 117.40512 20579 ft 341 kts
2026-04-16 14:49 37.32240 117.40992 20968 ft 346 kts
2026-04-16 14:49 37.34631 117.41540 21354 ft 354 kts 11°
2026-04-16 14:50 37.36832 117.43033 21739 ft 372 kts 38°
2026-04-16 14:50 37.38419 117.45667 22134 ft 384 kts 64°
2026-04-16 14:50 37.39027 117.48933 22530 ft 388 kts 91°
2026-04-16 14:50 37.38594 117.52313 22979 ft 386 kts 105°
2026-04-16 14:51 37.38144 117.55646 23381 ft 390 kts 95°
2026-04-16 14:51 37.38129 117.59071 23804 ft 394 kts 87°
2026-04-16 14:51 37.38374 117.62460 24209 ft 396 kts 83°
2026-04-16 14:51 37.38748 117.65954 24591 ft 398 kts 82°
2026-04-16 14:53 37.47586 118.36508 30607 ft 414 kts 82°
2026-04-16 14:53 37.48037 118.40144 30485 ft 427 kts 82°
2026-04-16 14:54 37.48513 118.43919 30294 ft 442 kts 82°
2026-04-16 14:54 37.49005 118.47790 30056 ft 458 kts 82°
2026-04-16 14:54 37.49508 118.51776 29815 ft 473 kts 82°
2026-04-16 14:54 37.50034 118.55943 29633 ft 489 kts 82°
2026-04-16 14:55 37.50577 118.60254 29419 ft 500 kts 81°
2026-04-16 14:55 37.51122 118.64592 29206 ft 497 kts 81°
2026-04-16 14:55 37.51658 118.68877 29058 ft 499 kts 82°
2026-04-16 14:55 37.52183 118.73102 29103 ft 480 kts 82°
2026-04-16 14:56 37.52683 118.77124 29127 ft 458 kts 82°
2026-04-16 14:56 37.53077 118.80985 29100 ft 437 kts 86°
2026-04-16 14:56 37.53350 118.84721 29041 ft 422 kts 85°
2026-04-16 14:56 37.53623 118.88359 29048 ft 423 kts 85°
2026-04-16 14:57 37.54140 118.95299 29068 ft 442 kts 85°
2026-04-16 14:57 37.54431 118.99240 29048 ft 454 kts 85°
2026-04-16 14:57 37.54726 119.03230 29065 ft 464 kts 85°
2026-04-16 14:58 37.55024 119.07285 29048 ft 475 kts 86°
2026-04-16 14:58 37.55634 119.15751 29020 ft 496 kts 86°
2026-04-16 14:59 37.56261 119.24563 28994 ft 513 kts 86°
2026-04-16 14:59 37.56902 119.33599 29052 ft 524 kts 87°
2026-04-16 15:00 37.57551 119.42841 29097 ft 528 kts 88°
2026-04-16 15:00 37.58191 119.52083 29112 ft 530 kts 88°
2026-04-16 15:01 37.58783 119.61317 29118 ft 531 kts 88°
2026-04-16 15:01 37.59425 119.70579 29092 ft 531 kts 88°
2026-04-16 15:02 37.60137 119.79887 29084 ft 532 kts 88°
2026-04-16 15:02 37.60840 119.89191 29125 ft 533 kts 88°
2026-04-16 15:03 37.61535 119.98501 29098 ft 532 kts 89°
2026-04-16 15:03 37.62221 120.07802 29132 ft 533 kts 88°
2026-04-16 15:04 37.62898 120.17076 29170 ft 530 kts 88°
2026-04-16 15:04 37.63567 120.26324 29106 ft 526 kts 87°
2026-04-16 15:05 37.64223 120.35531 29115 ft 526 kts 86°
2026-04-16 15:05 37.64877 120.44785 29092 ft 528 kts 87°
2026-04-16 15:06 37.65718 120.53974 29060 ft 532 kts 75°
2026-04-16 15:06 37.67219 120.58244 29095 ft 532 kts 55°
2026-04-16 15:06 37.67685 120.59104 29083 ft 531 kts 51°